Regional Weather Roundup
Issued by NWS

Home | Current Version | Previous Version | Graphics & Text | Print | Product List | Glossary Off
Versions: 1 2 3 4 5 6 7 8 9 10 11 12 13 14 15 16 17 18 19 20 21 22 23 24 25 26 27 28 29 30 31 32 33 34 35 36 37 38 39 40 41 42 43 44 45 46 47 48 49 50

000
ASUS43 KMKX 290321
RWRWI

WISCONSIN REGIONAL WEATHER ROUNDUP
NATIONAL WEATHER SERVICE MILWAUKEE/SULLIVAN WI
1000 PM CDT SAT MAY 28 2016

NOTE: "FAIR" INDICATES FEW OR NO CLOUDS BELOW 12,000 FEET WITH NO
SIGNIFICANT WEATHER AND/OR OBSTRUCTIONS TO VISIBILITY.

WIZ001-002-006>008-014>016-023>028-290400-
NORTHWEST WISCONSIN

CITY           SKY/WX    TMP DP  RH WIND       PRES   REMARKS
SUPERIOR ARPT  CLOUDY    50  50 100 CALM      29.80S FOG
ASHLAND        RAIN      56  54  93 NE3       29.81R FOG
HAYWARD        CLOUDY    62  60  93 N5        29.79S
SIREN          CLOUDY    61  59  94 CALM      29.80S
CUMBERLAND     CLOUDY    61  59  94 NW5       29.79F
RICE LAKE      CLOUDY    61  59  93 CALM      29.79F
CHETEK         CLOUDY    61  61 100 CALM      29.78S
LADYSMITH      PTCLDY    62  60  95 E5        29.81S
EAU CLAIRE     CLOUDY    63  61  93 S5        29.78R
MENOMONIE      CLOUDY    61  61  99 CALM      29.79R FOG
NEW RICHMOND   CLOUDY    62  62  98 W3        29.80R
OSCEOLA        CLOUDY    63  63 100 CALM      29.82S
$$

WIZ003>005-009-010-017-018-290400-
NORTH CENTRAL WISCONSIN

CITY           SKY/WX    TMP DP  RH WIND       PRES   REMARKS
MANITOWISH WTR NOT AVBL
ARBOR VITAE    MOCLDY    64  63  94 CALM      29.80F
WOODRUFF       MOCLDY    64  63  94 CALM      29.80F
RHINELANDER    LGT RAIN  66  62  87 SE7       29.83R
EAGLE RIVER      N/A     63  62  98 CALM      29.81F
LAND O LAKES   FOG       62  62  99 CALM      29.84R VSB 1
PHILLIPS       CLOUDY    60  60  99 CALM      29.81R
TOMAHAWK       CLOUDY    64  62  93 CALM      29.81S
MEDFORD        MOCLDY    63  63 100 S5        29.82R
MERRILL        LGT RAIN  69  63  83 S3        29.82R
$$

WIZ029-030-035-036-043>047-290400-
CENTRAL WISCONSIN

CITY           SKY/WX    TMP DP  RH WIND       PRES   REMARKS
WAUSAU         CLOUDY    69  63  81 S8        29.80R
MOSINEE        PTCLDY    64  64 100 SE3       29.83R
MARSHFIELD     CLOUDY    65  60  84 S5        29.81R
STEVENS POINT  MOCLDY    65  60  82 S9        29.83R
WAUPACA        CLOUDY    66  64  94 S6        29.84S
WAUTOMA        CLOUDY    65  63  93 SE7       29.85R
WISC RAPIDS    CLOUDY    65  61  87 SE5       29.83R
CAMP DOUGLAS   NOT AVBL
$$

WIZ011>013-019>022-031-037>040-048>050-290400-
NORTHEAST WISCONSIN

CITY           SKY/WX    TMP DP  RH WIND       PRES   REMARKS
ANTIGO         CLOUDY    64  62  94 S7        29.83R
SHAWANO        LGT RAIN  67  63  85 S5        29.84F
OCONTO         CLOUDY    70  62  75 SW9G18    29.85R
STURGEON BAY   NOT AVBL
GREEN BAY      CLOUDY    64  61  90 S9        29.86S
MANITOWOC      LGT RAIN  63  60  90 S12       29.93R
APPLETON       MOCLDY    64  63  94 SE8       29.85R
CLINTONVILLE   CLOUDY    64  61  88 S6        29.84S
OSHKOSH        CLOUDY    63  60  90 S10       29.87R
$$

WIZ032>034-041-042-053>061-290400-
SOUTHWEST WISCONSIN

CITY           SKY/WX    TMP DP  RH WIND       PRES   REMARKS
LA CROSSE      MOCLDY    65  62  90 S3        29.81R
SPARTA         CLOUDY    65  63  91 S3        29.82R
VIROQUA        MOCLDY    65  63  90 SW9       29.83S
BOSCOBEL       PTCLDY    69  62  78 SW6       29.83S
PRAIRIE DU CHI CLEAR     68  60  74 CALM      29.83S
PLATTEVILLE    PTCLDY    68  63  84 SW9       29.86S
$$

WIZ056-057-062-063-064-067-068-290400-
SOUTH CENTRAL WISCONSIN

CITY           SKY/WX    TMP DP  RH WIND       PRES   REMARKS
REEDSBURG      MOCLDY    65  64  96 S3        29.84R
BARABOO/DELLS  PTCLDY    65  62  90 S7        29.86R
LONE ROCK      MOCLDY    67  65  93 CALM      29.84S
MINERAL POINT  PTCLDY    68  66  94 S6        29.86S
MADISON        CLOUDY    65  63  93 CALM      29.87R
MIDDLETON      CLOUDY    66  64  91 CALM      29.88R
WATERTOWN      CLOUDY    64  64 100 E5        29.89R
MONROE         CLOUDY    68  63  83 S9        29.89R
JANESVILLE     NOT AVBL
$$

WIZ051-052-058>065-066-070>072-290400-
SOUTHEAST WISCONSIN

CITY           SKY/WX    TMP DP  RH WIND       PRES   REMARKS
MILWAUKEE      LGT RAIN  67  62  84 S14       29.93R
WAUKESHA       LGT RAIN  63  61  94 S8        29.93R
MILWAUKEE/TIMM RAIN      63  59  88 S8        29.94R
RACINE         TSTM      66  60  81 SW14G22   29.96R
BURLINGTON     DRIZZLE   64  62  95 S7        29.93R
KENOSHA        LGT RAIN  67  61  81 SW15G29   29.95R
FOND DU LAC    CLOUDY    64  61  90 S9        29.88R
SHEBOYGAN      LGT RAIN  62  60  93 S5        29.92F
WEST BEND      LGT RAIN  63  59  88 S6        29.92R
JUNEAU         CLOUDY    63  61  94 E7        29.90R
$$

LSZ147-162-290400-
LAKE SUPERIOR

STATION/POSITION TIME  TEMP    WIND        PRES    WAVE
                       AIR SEA DIR/SP/G            HT/PER
                 (UTC) (F)     (DEG/KT/KT) (MB)    (FT/S)
W MID LAKE BUOY  0250   44 38   20/ 10/ 10 1009.3F   1/ 3
DEVILS ISLAND    0300   45     280/  3/  4 1010.2R
PORT WING        0200   44      40/  3/  4 1009.5
SAXON HARBOR     0200   53      CALM  /  1 1009.1R
$$

LMZ867-665-643>646-290400-
LAKE MICHIGAN

STATION/POSITION TIME  TEMP    WIND        PRES    WAVE
                       AIR SEA DIR/SP/G            HT/PER
                 (UTC) (F)     (DEG/KT/KT) (MB)    (FT/S)
CHAMBERS ISLAND  0200   67     160/  6/ 13 1010.2S
N MID LAKE BUOY  0250   53 46  190/ 12/ 14 1011.4F   3/ 5
NORTHPORT PIER   0200   60     150/  8/ 12 1011.2R
SISTER BAY       0205   63     170/ 15/ 19   N/A
ALGOMA LAKESHORE 0217          210/  6/  8   N/A
KEWAUNEE LAKESHO 0200                      1010.6R
SHEBOYGAN LAKESH 0300   65     240/  5/  5 1013.5R
PORT WASHINGTON  0200   58     210/  3/ 14 1012.2S
S MID LAKE BUOY  0250   59 50  160/ 12/ 14 1012.7R   2/ 4
KENOSHA   LAKESH 0300   71     250/ 20/ 31 1014.2R
$$

TC  - TEMPERATURE IN CELSIUS
VSB - VISIBILITY IN STATUTE MILES
WCI - WIND CHILL INDEX
HX  - HEAT INDEX





USA.gov is the U.S. government's official web portal to all federal, state and local government web resources and services.